[[{"header":{"parameterUnit":"m.s-1","parameterCategory":1,"la1":30.2991,"la2":30.254,"lo1":-89.0895,"lo2":-89.0444,"dy":0.0017,"dx":0.0017,"nx":28,"ny":28,"refTime":"2024-12-04T09:00:00:Z","depth":0,"parameterNumber":2,"parameterNumberName":"U-component_of_WINDS"},"data":[0,0,0,0,0,0,0,0,0,0,0,0,0,0,0,0,0,0,0,0,0,0,0,0,0,0,0,0,0,0,0,0,0,0,0,0,0,0,0,0,0,0,0,0,0,0,0,0,0,0,0,0,0,0,0,0,0,0,-2.1787,-2.1788,0,-2.1844,-2.1844,-2.1845,-2.1857,-2.1856,-2.1856,-2.1855,-2.1914,-2.1915,-2.1917,0,0,0,0,0,0,0,0,0,0,0,0,0,-2.1691,-2.1693,-2.1787,-2.1788,-2.1789,-2.1844,-2.1844,-2.1845,-2.1857,-2.1856,-2.1856,-2.1855,-2.1913,-2.1915,-2.1918,0,0,0,0,0,0,0,0,0,0,0,0,0,-2.1739,-2.1693,-2.1787,-2.1801,-2.1803,-2.1843,-2.1844,-2.1845,-2.1857,-2.1856,-2.1855,-2.1855,-2.1912,-2.1915,-2.1918,-2.1949,0,0,-2.1927,-2.1928,0,0,0,0,0,0,0,0,-2.1736,-2.1742,-2.1798,-2.18,-2.1802,-2.1842,-2.1832,-2.188,-2.1857,-2.1836,-2.1855,-2.1854,-2.189,-2.1895,-2.1907,-2.1952,-2.1954,-2.1927,-2.1929,-2.193,-2.1931,0,0,0,0,0,0,0,-2.1733,-2.174,-2.181,-2.1799,-2.1801,-2.1805,-2.1811,-2.1841,-2.1866,-2.1838,-2.1839,-2.1845,-2.1891,-2.1904,-2.1909,-2.1955,-2.1927,-2.193,-2.1931,-2.1933,-2.2029,-2.203,0,0,0,0,0,0,-2.1727,-2.1737,-2.1808,-2.1811,-2.1767,-2.1807,-2.1814,-2.183,-2.1866,-2.1871,-2.1846,-2.1846,-2.19,-2.1905,-2.1911,-2.195,-2.193,-2.1933,-2.1935,-2.2029,-2.203,-2.203,0,0,0,0,0,0,-2.1725,-2.1733,-2.1805,-2.1774,-2.1784,-2.1809,-2.1828,-2.1832,-2.1844,-2.1872,-2.1877,-2.1854,-2.1899,-2.1907,-2.194,-2.1952,-2.1934,-2.1937,-2.2028,-2.2029,-2.203,-2.2029,0,0,0,0,0,0,-2.1722,-2.1732,-2.1744,-2.1775,-2.1786,-2.1833,-2.1828,-2.1833,-2.1849,-2.185,-2.1881,-2.1886,-2.1899,-2.1935,-2.1943,-2.1956,-2.1939,-2.2027,-2.2028,-2.203,-2.2028,-2.203,-2.2031,0,0,0,0,0,-2.1718,-2.1741,-2.1744,-2.1753,-2.18,-2.1834,-2.184,-2.1855,-2.185,-2.1863,-2.1881,-2.1885,-2.195,-2.1939,-2.1947,-2.1961,-2.2026,-2.2028,-2.203,-2.2027,-2.2029,-2.2031,0,0,0,0,0,0,-2.1711,-2.1745,-2.1749,-2.1782,-2.1805,-2.1835,-2.1851,-2.1857,-2.1882,-2.1881,-2.1899,-2.1906,-2.1938,-2.1953,-2.194,-2.1994,-2.1988,-2.1991,-2.1983,-2.1985,-2.1987,-2.1983,-2.1942,0,0,0,0,0,-2.1713,-2.1736,-2.1765,-2.1792,-2.1803,-2.1825,-2.184,-2.185,-2.1874,-2.1884,-2.1904,-2.1928,-2.1954,-2.1971,-2.1996,-2.203,-2.2038,-2.2045,-2.2046,-2.2048,-2.205,-2.2071,-2.2074,-2.2036,-2.2036,-2.2036,0,0,-2.1717,-2.1739,-2.1753,-2.1791,-2.181,-2.1834,-2.1833,-2.1859,-2.1878,-2.1888,-2.192,-2.1936,-2.1964,-2.1998,-2.2014,-2.2012,-2.2063,-2.205,-2.2051,-2.2053,-2.2073,-2.2077,-2.208,-2.2038,-2.2037,-2.2037,0,0,-2.1739,-2.1757,-2.1782,-2.1801,-2.1829,-2.1844,-2.185,-2.188,-2.1891,-2.1924,-2.1932,-2.1955,-2.1999,-2.2019,-2.2035,-2.2065,-2.207,-2.2073,-2.2082,-2.2102,-2.2105,-2.2108,-2.2119,-2.2123,-2.2076,-2.2076,-2.2076,0,-2.1741,-2.1778,-2.1794,-2.182,-2.1836,-2.1847,-2.1873,-2.189,-2.1926,-2.1937,-2.1934,-2.1991,-2.201,-2.2049,-2.2057,-2.2069,-2.2077,-2.2069,-2.2103,-2.2106,-2.2109,-2.212,-2.2124,-2.2076,-2.2076,-2.2076,-2.2076,0,-2.178,-2.1805,-2.1822,-2.1856,-2.1875,-2.19,-2.192,-2.1938,-2.1946,-2.1962,-2.1996,-2.202,-2.205,-2.2061,-2.2069,-2.2102,-2.2099,-2.2099,-2.2093,-2.2112,-2.2123,-2.2127,-2.2076,-2.2076,-2.2076,-2.2076,0,0,-2.1797,-2.184,-2.1846,-2.1862,-2.1894,-2.1915,-2.1941,-2.1972,-2.1986,-2.2011,-2.2034,-2.2072,-2.2072,-2.209,-2.2101,-2.2118,-2.2142,-2.2117,-2.2118,-2.2121,-2.218,-2.218,-2.2184,-2.2146,-2.2146,-2.2147,-2.2178,0,-2.1822,-2.1869,-2.1885,-2.1924,-2.1949,-2.196,-2.1983,-2.2006,-2.2022,-2.2045,-2.2062,-2.2089,-2.2088,-2.2099,-2.2116,-2.2135,-2.2154,-2.2133,-2.2168,-2.2169,-2.216,-2.219,-2.2189,-2.2217,-2.2182,-2.2183,-2.2183,0,-2.1858,-2.1883,-2.1925,-2.1955,-2.1966,-2.1987,-2.2016,-2.2038,-2.2065,-2.2075,-2.2096,-2.2106,-2.2135,-2.2128,-2.2168,-2.2154,-2.2169,-2.2181,-2.2182,-2.2186,-2.2177,-2.2194,-2.2226,-2.223,-2.219,-2.2189,-2.2189,0,-2.1867,-2.1911,-2.1942,-2.1955,-2.1992,-2.2006,-2.2022,-2.2048,-2.2065,-2.2091,-2.2103,-2.2132,-2.2148,-2.2171,-2.2189,-2.2182,-2.2228,-2.2222,-2.2238,-2.2237,-2.2247,-2.2246,-2.2281,-2.2257,-2.2256,-2.2256,-2.2256,0,-2.1894,-2.1919,-2.1947,-2.1966,-2.1995,-2.2013,-2.2041,-2.2058,-2.2081,-2.2104,-2.2116,-2.2137,-2.216,-2.2185,-2.2199,-2.2231,-2.2238,-2.2247,-2.2251,-2.2246,-2.2245,-2.2256,-2.2255,-2.2258,-2.2257,-2.2257,-2.2257,0,-2.1908,-2.1928,-2.1962,-2.1994,-2.2003,-2.2023,-2.205,-2.207,-2.2086,-2.2115,-2.2123,-2.2149,-2.2178,-2.2199,-2.2237,-2.2247,-2.2281,-2.2284,-2.2272,-2.2274,-2.2289,-2.2287,-2.2333,-2.234,-2.231,-2.231,-2.231,0,-2.1924,-2.1944,-2.1978,-2.1994,-2.201,-2.2036,-2.2054,-2.2073,-2.2091,-2.2124,-2.214,-2.217,-2.2196,-2.2243,-2.2265,-2.2295,-2.2299,-2.2313,-2.2303,-2.2299,-2.23,-2.2298,-2.2301,-2.2314,-2.2315,-2.2315,-2.2315,0,-2.1951,-2.196,-2.1985,-2.2014,-2.2035,-2.2058,-2.2082,-2.2095,-2.2118,-2.2139,-2.2169,-2.2189,-2.2228,-2.2259,-2.2291,-2.2308,-2.2316,-2.2318,-2.2323,-2.2319,-2.2311,-2.2316,-2.2277,-2.2317,-2.2316,-2.2316,-2.2316,-2.2316,-2.1967,-2.1985,-2.2012,-2.204,-2.206,-2.2083,-2.2102,-2.2121,-2.2147,-2.218,-2.219,-2.2222,-2.225,-2.2293,-2.2311,-2.2337,-2.2336,-2.2343,-2.2345,-2.2347,-2.2347,-2.2307,-2.2343,-2.2343,-2.2343,-2.2343,-2.2343,0,-2.1995,-2.2013,-2.2038,-2.2071,-2.2093,-2.2098,-2.2125,-2.2144,-2.2172,-2.2197,-2.2222,-2.2257,-2.2287,-2.2312,-2.2343,-2.2359,-2.2364,-2.2367,-2.2366,-2.237,-2.2346,-2.2338,-2.2363,-2.2363,-2.2363,-2.2363,-2.2363,-2.2363,-2.2012,-2.2043,-2.2055,-2.2097,-2.2115,-2.2146,-2.2162,-2.2182,-2.2202,-2.2242,-2.2266,-2.2282,-2.2308,-2.2341,-2.2369,-2.2376,-2.2387,-2.2389,-2.2397,-2.2374,-2.2372,-2.2369,-2.2362,-2.2391,-2.2391,-2.2419,-2.2419,-2.2419]},{"header":{"parameterUnit":"m.s-1","parameterCategory":1,"la1":30.2991,"la2":30.254,"lo1":-89.0895,"lo2":-89.0444,"dy":0.0017,"dx":0.0017,"nx":28,"ny":28,"refTime":"2024-12-04T09:00:00:Z","depth":0,"parameterNumber":3,"parameterNumberName":"V-component_of_WINDS"},"data":[0,0,0,0,0,0,0,0,0,0,0,0,0,0,0,0,0,0,0,0,0,0,0,0,0,0,0,0,0,0,0,0,0,0,0,0,0,0,0,0,0,0,0,0,0,0,0,0,0,0,0,0,0,0,0,0,0,0,4.533,4.5331,0,4.5406,4.5406,4.5407,4.5364,4.5362,4.536,4.5358,4.5432,4.5436,4.5439,0,0,0,0,0,0,0,0,0,0,0,0,0,4.5143,4.5147,4.533,4.5331,4.5332,4.5406,4.5407,4.5408,4.5365,4.5362,4.536,4.5357,4.543,4.5435,4.544,0,0,0,0,0,0,0,0,0,0,0,0,0,4.5222,4.5148,4.533,4.5319,4.5319,4.5405,4.5407,4.5408,4.5365,4.5362,4.5359,4.5356,4.5429,4.5435,4.544,4.554,0,0,4.5458,4.5461,0,0,0,0,0,0,0,0,4.5218,4.5229,4.532,4.532,4.532,4.5372,4.5368,4.5452,4.5366,4.5348,4.5358,4.5354,4.5414,4.5421,4.5442,4.5543,4.5546,4.5459,4.5463,4.5465,4.5467,0,0,0,0,0,0,0,4.5212,4.5225,4.536,4.5321,4.5322,4.5309,4.5317,4.5383,4.5398,4.5349,4.5346,4.5356,4.5414,4.5437,4.5444,4.5548,4.5459,4.5464,4.5468,4.547,4.5732,4.5735,0,0,0,0,0,0,4.5208,4.5221,4.5357,4.5362,4.526,4.5315,4.5324,4.5359,4.5397,4.54,4.5358,4.5354,4.5428,4.5437,4.5446,4.5565,4.5465,4.5471,4.5474,4.5729,4.5733,4.5737,0,0,0,0,0,0,4.5204,4.5221,4.5354,4.5291,4.5307,4.5322,4.5361,4.5362,4.5385,4.5404,4.5406,4.538,4.5426,4.5438,4.5517,4.5566,4.5473,4.5479,4.5725,4.573,4.5735,4.5803,0,0,0,0,0,0,4.5199,4.522,4.5259,4.5292,4.5311,4.5426,4.5364,4.5366,4.5396,4.539,4.5424,4.5427,4.5424,4.5508,4.5523,4.5573,4.5483,4.572,4.5727,4.5733,4.5796,4.581,4.5821,0,0,0,0,0,4.5193,4.5275,4.5261,4.5278,4.536,4.5429,4.5439,4.5436,4.54,4.5439,4.545,4.5426,4.5558,4.5517,4.5533,4.5585,4.5717,4.5725,4.5733,4.5791,4.5807,4.5821,0,0,0,0,0,0,4.5246,4.5279,4.5264,4.536,4.5392,4.5421,4.5471,4.5453,4.5495,4.5488,4.548,4.5488,4.5571,4.5585,4.5539,4.5683,4.5632,4.5643,4.5671,4.5686,4.5698,4.5694,4.5488,0,0,0,0,0,4.5269,4.5323,4.5348,4.543,4.5447,4.5456,4.5486,4.548,4.5512,4.5525,4.5543,4.5574,4.5623,4.5655,4.5701,4.5797,4.5804,4.5841,4.5853,4.5864,4.5874,4.5925,4.5942,4.5762,4.5762,4.5762,0,0,4.5317,4.5342,4.5376,4.5441,4.5466,4.552,4.5468,4.5528,4.5568,4.5534,4.5611,4.5624,4.5658,4.5746,4.5786,4.5761,4.5924,4.5873,4.5881,4.5886,4.5935,4.5952,4.5967,4.5767,4.5766,4.5766,0,0,4.5433,4.5457,4.5528,4.5553,4.559,4.5595,4.5612,4.5644,4.5652,4.5729,4.5704,4.575,4.5834,4.5859,4.5883,4.6006,4.5985,4.6021,4.6086,4.6136,4.615,4.6163,4.6206,4.6222,4.603,4.6031,4.6031,0,4.5488,4.5571,4.5566,4.5628,4.5657,4.5629,4.5699,4.5723,4.5773,4.5793,4.5764,4.5868,4.5889,4.5982,4.6012,4.6032,4.605,4.6018,4.6149,4.6161,4.6173,4.6214,4.6231,4.6035,4.6034,4.6034,4.6033,0,4.5636,4.5694,4.5746,4.5796,4.583,4.5896,4.5899,4.5934,4.5925,4.5932,4.6009,4.6033,4.6083,4.6104,4.6095,4.6196,4.6179,4.615,4.6099,4.6194,4.6233,4.6249,4.6041,4.6039,4.6038,4.6037,0,0,4.579,4.5835,4.5855,4.5876,4.5914,4.5958,4.6021,4.6071,4.6101,4.6135,4.6188,4.6259,4.6231,4.6258,4.6252,4.6295,4.6391,4.626,4.6261,4.6284,4.6502,4.6524,4.6543,4.6376,4.6379,4.6381,4.6499,0,4.5909,4.6022,4.6018,4.6123,4.6175,4.6148,4.6203,4.6231,4.6239,4.6283,4.6291,4.6342,4.6302,4.6318,4.636,4.637,4.6434,4.6361,4.6424,4.6426,4.6418,4.6563,4.6588,4.6698,4.6514,4.6517,4.6519,0,4.6063,4.6104,4.6214,4.6243,4.6265,4.6315,4.6359,4.6402,4.6433,4.6435,4.6464,4.645,4.6512,4.6459,4.6544,4.6495,4.6519,4.6528,4.6532,4.6539,4.6479,4.6574,4.6733,4.675,4.6542,4.6541,4.6539,0,4.6165,4.6247,4.6323,4.6342,4.6378,4.6414,4.643,4.6457,4.6487,4.6524,4.6543,4.6587,4.6611,4.6645,4.6642,4.6604,4.6728,4.6675,4.6732,4.6732,4.676,4.6759,4.6926,4.6775,4.6775,4.6774,4.6774,0,4.6298,4.6367,4.6369,4.6416,4.6492,4.6485,4.6559,4.6571,4.6595,4.6643,4.6621,4.6666,4.6659,4.6703,4.6701,4.6771,4.6782,4.6785,4.6784,4.6788,4.6788,4.6805,4.6798,4.6779,4.6778,4.6777,4.6776,0,4.6426,4.643,4.6512,4.6538,4.6546,4.6601,4.6623,4.6666,4.6671,4.6732,4.6745,4.6753,4.6804,4.6804,4.6862,4.6861,4.6947,4.6937,4.6938,4.6936,4.6993,4.6988,4.7178,4.7202,4.7035,4.7036,4.7037,0,4.6512,4.6564,4.6596,4.6627,4.6645,4.6695,4.6725,4.6719,4.6751,4.6788,4.6827,4.6876,4.6915,4.6997,4.7008,4.7051,4.7042,4.7105,4.7049,4.7051,4.7043,4.7041,4.7046,4.7117,4.7119,4.7121,4.7122,0,4.6663,4.6662,4.6707,4.6752,4.6789,4.6823,4.6856,4.6882,4.6879,4.6915,4.6967,4.6998,4.7057,4.7105,4.7147,4.7161,4.7141,4.7139,4.7155,4.716,4.7159,4.716,4.6969,4.7135,4.7134,4.7133,4.7132,4.7132,4.6773,4.6818,4.6847,4.6897,4.692,4.695,4.6993,4.7003,4.7047,4.7095,4.7088,4.7146,4.7173,4.7227,4.7245,4.7289,4.7267,4.729,4.7295,4.7301,4.7308,4.7151,4.7297,4.7296,4.7296,4.7296,4.7295,0,4.6924,4.6941,4.6987,4.7033,4.7071,4.7049,4.7082,4.7116,4.7168,4.7195,4.7234,4.7293,4.7339,4.7352,4.7397,4.7429,4.7421,4.7441,4.7439,4.7443,4.7325,4.7308,4.7447,4.7447,4.7447,4.7447,4.7447,4.7447,4.7007,4.7082,4.7084,4.7168,4.7184,4.7242,4.7263,4.729,4.7312,4.7379,4.7418,4.7426,4.7447,4.7492,4.7533,4.7536,4.7553,4.7577,4.7576,4.7466,4.7451,4.7437,4.742,4.7581,4.7581,4.769,4.7691,4.7692]}]]